map of AUR home
Great Circle Mapper logo
AUR - Airport
Location
City:  Aurillac, France
ICAO / IATA:LFLW / AUR

Details
Type:Airport (Aerodrome, Airfield)
Use:Public/Civil
Latitude:4453'51"N (44.897583)
Longitude:225'00"E (2.416719)
Elevation:2096 ft (639 m)
Variation:0.51E (WMM2015 magnetic declination)
0.12 annual change
Runways:1
Longest:5577 × 98 ft (1700 × 30 m)

Time
Time Zone:UTC+1 (DST+2)
Local Time:

Weather
METAR:LFLW 031630Z AUTO 15010KT 130V190 CAVOK 33/08 Q1021

Related Locations
Nearby:
Farthest:CHT: 12340 mi / 19859 km
Waitangi [Tuuta], Chatham Islands, NZ

Find:

   beyond  
but within

Other Information
Maps:
NOTAMs:
Links:
Sources:

  
flag of France   

Sectional Chart

Flight Planning
at skyvector.com

Satellite Image

Google Maps Satellite view

 

Copyright © 2004-2015 Karl L. Swartz. All rights reserved.
The Great Circle Mapper name and logo are trademarks of the Great Circle Mapper.
All other trademarks mentioned herein belong to their respective owners.
Please see credits for attibutions and further copyright information.

  Follow gcmap on Facebook Follow gcmap on Twitter Follow gcmap on Google+

hCard Microformat

Geo Microformat